SCP
0 0 0 0 0 0 0 0 0 0 0 0 0 0 0 0 0 0 0 0 1 1 1 1 1 1 1 1 1 1 0 0 0 0 0 0 0 0 0 0 0 0 0 0 0 0 0 0 0
0 0 0 0 0 0 0 0 0 0 0 0 0 0 0 0 0 0 0 1 1 1 1 1 1 1 1 1 1 1 1 1 1 1 0 0 0 0 0 0 0 0 0 0 0 0 0 0 0
0 0 0 0 0 0 0 0 0 0 0 0 0 0 0 0 0 0 0 1 1 1 1 1 2 1 1 1 1 1 1 1 1 1 1 1 0 0 0 0 0 0 0 0 0 0 0 0 0
0 0 0 0 0 0 0 0 0 0 0 0 0 0 0 0 0 0 0 1 1 1 1 2 2 2 1 1 1 1 1 1 1 1 1 1 1 1 0 0 0 0 0 0 0 0 0 0 0
0 0 0 0 0 0 0 0 0 0 0 0 0 0 1 1 1 1 1 1 1 1 2 2 2 2 1 1 1 1 1 1 1 1 1 1 1 1 1 1 0 0 0 0 0 0 0 0 0
0 0 0 0 0 0 0 0 0 0 0 0 0 0 1 1 1 1 1 1 1 1 2 2 2 2 1 1 1 1 1 1 1 1 1 1 1 1 1 1 1 0 0 0 0 0 0 0 0
0 0 0 0 0 0 0 0 0 0 0 0 0 0 0 1 1 1 1 1 1 2 2 2 2 2 1 1 1 1 1 1 1 1 1 1 1 1 1 1 1 1 0 0 0 0 0 0 0
0 0 0 0 0 0 0 0 0 0 0 0 0 0 1 1 1 1 1 1 1 1 2 2 2 1 1 1 1 1 1 1 1 1 1 1 1 1 1 1 1 1 1 0 0 0 0 0 0
0 0 0 0 0 0 0 0 0 0 0 0 0 0 1 1 1 1 1 1 1 1 2 2 2 1 1 1 1 1 1 1 1 1 1 1 1 1 1 1 1 1 1 1 1 0 0 0 0
0 0 0 0 0 0 0 0 0 0 0 0 0 0 1 1 1 1 1 1 1 1 2 2 2 1 1 1 1 1 1 1 1 1 1 1 1 1 1 1 1 1 1 1 1 1 1 0 0
0 0 0 0 0 0 0 0 0 0 0 0 0 1 1 1 1 1 1 1 1 1 2 2 2 2 2 1 2 2 1 1 1 1 1 1 1 1 1 1 2 1 1 1 1 1 1 1 0
0 0 0 0 0 0 0 0 0 0 0 0 0 0 1 1 1 1 1 1 1 2 2 2 2 2 2 2 2 2 2 2 1 1 1 1 1 1 1 2 3 2 1 1 1 1 1 1 0
0 0 0 0 0 0 0 0 0 0 0 0 0 0 1 1 1 1 1 1 1 2 2 2 2 3 3 3 3 2 2 2 2 2 2 2 1 1 1 2 2 2 1 1 1 1 1 1 1
0 0 0 0 0 0 0 0 0 0 0 0 0 0 1 1 1 1 1 1 2 2 3 3 3 3 3 3 3 3 2 2 2 2 2 2 1 1 1 1 1 1 1 1 1 1 1 1 1
0 0 0 0 0 0 0 0 0 0 0 0 0 0 1 1 1 1 1 2 2 3 3 3 3 3 3 3 3 3 2 2 2 2 2 2 2 1 1 1 1 1 1 1 1 1 1 1 1
0 0 0 0 0 0 0 0 0 0 0 0 0 0 1 1 1 1 1 2 2 3 3 3 3 3 3 3 3 3 2 2 2 2 2 2 2 1 1 1 1 1 1 1 1 1 1 1 1
0 0 0 0 0 0 0 0 0 0 0 0 0 1 1 1 1 1 1 2 2 3 3 3 3 3 3 3 3 2 2 2 2 2 2 2 2 1 1 1 1 1 1 1 1 1 1 1 1
0 0 0 0 0 0 0 0 0 0 0 0 0 1 1 1 1 1 1 2 2 3 3 3 3 3 3 3 3 2 2 2 2 2 2 2 2 1 1 1 1 1 1 1 1 1 1 1 1
0 0 0 0 0 0 0 0 0 0 0 0 0 1 1 1 1 1 1 1 2 2 2 2 2 2 2 2 2 2 2 2 2 2 2 2 2 1 1 1 1 1 1 1 1 1 1 1 1
0 0 0 0 0 0 0 0 0 0 0 0 0 1 1 1 1 1 1 1 2 2 2 2 2 2 2 2 2 2 2 1 1 1 1 1 1 1 1 1 1 1 1 1 1 1 1 1 1
0 0 0 0 0 0 0 0 0 0 0 0 1 1 1 1 1 1 1 1 1 2 2 2 2 2 2 2 2 2 1 1 1 1 1 1 1 1 1 1 1 1 1 1 1 1 1 1 1
0 0 0 0 0 0 0 0 0 0 0 1 1 1 1 1 1 1 1 1 1 1 2 2 2 2 2 2 1 1 1 1 1 1 1 1 1 1 1 1 1 1 1 1 1 1 1 1 1
0 0 0 0 0 0 0 0 0 0 1 1 1 1 1 1 1 1 1 1 1 2 2 2 2 2 1 1 1 1 1 1 1 1 1 1 1 1 1 1 1 1 1 1 1 1 1 1 1
0 0 0 0 0 0 0 0 0 0 0 0 0 1 1 1 1 1 1 1 1 1 1 1 1 1 1 1 1 1 1 1 1 1 1 1 1 1 1 1 1 1 1 1 1 1 1 1 1
0 0 0 0 0 0 0 0 0 0 0 0 0 0 1 1 1 1 1 1 1 1 1 1 1 1 1 1 1 1 1 1 1 1 1 1 1 1 1 1 1 1 1 1 1 1 1 1 0
0 0 0 0 0 0 0 0 0 0 0 0 0 0 0 0 0 0 1 1 1 1 1 1 1 1 1 1 1 1 1 1 1 1 1 1 1 1 1 1 1 1 1 1 1 1 1 1 0
0 0 0 0 0 0 0 0 0 0 0 0 0 0 0 0 0 0 1 1 1 1 1 1 1 1 1 1 1 1 1 1 1 0 0 0 0 0 0 0 0 0 0 0 0 0 1 0 0
0 0 0 0 0 0 0 0 0 0 0 0 0 0 0 0 0 0 1 1 1 1 1 1 1 0 0 0 0 0 0 0 0 0 0 0 0 0 0 0 0 0 0 0 0 0 1 0 0
0 0 0 0 0 0 0 0 0 0 0 0 0 0 0 0 0 1 1 1 1 1 0 0 0 0 0 0 0 0 0 0 0 0 0 0 0 0 0 0 0 0 0 0 0 0 0 0 0
0 0 0 0 0 0 0 0 0 0 0 0 0 0 0 0 0 1 1 0 0 0 0 0 0 0 0 0 0 0 0 0 0 0 0 0 0 0 0 0 0 0 0 0 0 0 0 0 0
Wind_Speed
8 11 9 7 7 7 5 2 5 8 9 9 8 8 11 12 9 7 8 10 15 18 17 16 15 13 12 11 11 10 10 10 10 10 9 8 8 7 6 6 6 5 5 4 4 3 3 3 3
9 12 9 6 7 5 3 3 7 8 7 6 6 7 9 11 10 9 9 11 15 18 16 15 15 13 12 11 11 10 10 11 10 10 9 9 8 7 7 6 5 5 4 4 4 3 3 2 2
11 13 7 7 7 4 2 5 6 7 5 5 5 7 8 7 9 7 10 12 14 16 15 16 16 13 12 11 11 10 10 10 10 10 9 9 8 7 7 6 5 5 4 4 4 3 3 2 2
8 8 7 8 7 3 3 6 6 5 5 4 4 7 9 8 6 9 11 11 13 16 17 17 16 14 12 11 10 10 10 10 10 10 9 9 8 7 7 6 6 5 5 4 4 4 3 3 3
10 7 9 10 8 2 5 6 5 5 4 4 5 7 9 8 9 10 9 10 12 15 16 17 16 14 13 12 10 10 9 9 9 9 9 8 8 7 7 7 6 6 5 5 5 5 4 4 4
8 8 9 8 6 1 5 4 4 5 5 5 5 6 7 7 8 8 8 7 11 15 16 16 16 15 13 12 11 10 9 9 9 9 9 8 8 8 8 7 7 7 6 6 5 5 5 5 5
10 9 10 11 7 2 4 4 4 4 5 6 5 5 7 7 7 6 7 7 9 14 15 14 14 13 13 12 11 10 9 9 9 9 8 9 9 9 9 8 8 8 7 7 7 6 6 7 7
10 10 12 9 7 3 4 2 3 5 6 6 6 5 6 7 5 6 6 5 7 11 12 12 13 12 11 11 11 11 10 9 9 9 9 9 10 10 11 10 9 9 9 9 8 8 8 8 9
13 11 10 8 6 5 5 4 4 4 4 6 7 8 9 8 6 6 6 5 6 8 9 10 11 11 10 11 11 11 10 9 9 9 10 9 7 8 9 11 11 11 11 10 10 10 10 9 10
9 8 7 6 6 6 6 5 4 4 4 5 7 8 8 7 6 5 5 6 6 7 8 8 9 9 9 7 8 7 8 8 7 6 7 6 6 5 6 8 11 12 11 11 11 11 10 9 6
8 8 7 7 5 4 6 5 5 5 5 6 5 5 5 5 4 4 4 4 5 6 6 7 7 7 6 5 6 4 4 5 7 7 6 5 4 4 4 3 5 7 9 7 7 8 6 6 5
7 7 7 6 6 6 5 5 5 5 5 4 3 3 4 4 3 2 2 2 4 5 6 5 6 6 5 4 4 4 4 4 5 5 6 5 3 3 2 2 3 4 4 4 4 4 6 6 6
8 6 5 5 4 5 5 4 4 4 3 3 3 3 3 2 2 2 2 1 2 4 3 5 5 6 4 3 2 3 3 3 4 3 4 4 3 3 3 2 2 3 3 4 4 4 5 5 5
7 6 6 6 5 6 5 5 3 3 1 1 2 2 3 3 4 4 3 2 2 2 3 3 3 5 5 3 2 2 2 2 2 2 3 4 3 2 2 2 2 3 2 2 3 4 3 3 3
9 10 9 7 6 4 3 5 3 2 1 1 2 3 4 4 4 3 2 2 3 3 2 2 3 4 4 3 3 2 2 2 2 2 2 2 2 2 2 2 3 3 3 3 3 4 3 4 4
11 12 9 5 4 3 5 5 2 3 2 1 1 3 4 5 4 4 3 4 4 3 3 1 1 4 4 3 2 1 1 1 1 2 2 2 2 2 2 3 2 2 2 2 3 3 2 3 3
10 8 7 6 4 5 6 5 2 2 4 1 2 3 5 6 5 5 4 4 4 4 4 2 1 1 3 3 3 2 1 1 1 1 2 1 1 2 2 2 2 2 2 2 3 2 2 3 3
11 11 10 9 5 7 7 5 4 3 4 1 4 5 5 5 5 5 5 5 4 4 4 3 1 1 0 2 2 2 1 1 1 1 1 1 1 1 2 2 2 2 2 2 2 2 2 3 3
11 12 12 10 8 9 8 6 4 2 1 2 4 5 5 5 5 5 5 5 5 4 3 2 1 1 1 0 1 2 2 1 1 1 1 1 1 2 2 2 2 2 2 3 2 2 3 3 2
11 13 12 9 9 9 10 8 3 1 1 3 4 5 5 6 5 4 3 4 3 3 3 2 2 1 1 0 1 2 1 1 1 1 1 1 2 2 3 2 2 2 2 3 3 2 2 3 2
10 12 12 13 13 12 12 8 0 4 5 5 5 5 5 5 4 4 3 2 2 2 2 2 2 2 1 1 1 1 1 2 2 2 2 2 2 2 2 2 2 3 3 3 3 3 3 3 3
11 13 13 14 14 11 11 8 1 4 4 6 6 6 6 5 5 5 3 3 2 3 2 2 2 2 2 1 1 1 2 2 1 1 1 2 2 2 2 2 3 3 3 2 3 2 3 3 3
12 14 15 16 15 14 9 7 1 4 5 6 6 6 6 6 5 5 4 4 3 3 3 2 2 2 2 1 1 2 2 1 1 1 2 2 3 3 2 3 2 3 2 2 3 3 3 3 2
12 14 15 13 10 10 8 8 2 3 4 4 5 6 6 6 6 6 6 6 5 4 3 3 2 1 1 1 1 1 2 2 2 2 2 2 1 1 2 2 2 2 2 3 3 3 4 3 2
12 12 9 8 6 7 9 6 4 6 5 5 5 5 5 5 6 6 6 5 5 4 4 3 3 1 1 1 1 1 1 2 2 2 2 2 2 1 1 2 2 2 2 3 2 2 3 3 2
11 10 8 10 11 11 9 3 3 5 7 7 7 6 6 5 5 5 5 5 5 5 5 5 3 2 1 1 1 1 1 1 2 2 2 2 2 1 1 1 2 2 2 3 2 2 2 1 2
11 9 10 10 12 11 6 3 2 5 8 8 7 7 7 6 6 6 5 5 5 5 5 5 4 2 2 1 1 1 2 1 2 2 2 2 2 2 1 1 2 2 2 2 2 2 1 1 2
10 10 8 7 8 9 9 5 5 7 8 7 7 8 8 7 5 5 4 4 4 4 3 3 3 3 2 1 1 2 1 1 1 2 2 2 2 2 2 2 2 2 2 2 2 2 2 2 2
10 10 9 9 8 9 9 4 4 5 7 8 7 7 8 7 6 5 5 4 4 4 3 3 3 3 2 1 1 2 2 2 1 1 1 2 2 2 2 2 2 2 2 2 2 2 2 2 2
7 8 9 8 9 9 9 5 5 7 7 7 8 8 8 8 8 6 6 5 4 4 4 3 3 3 2 1 1 1 1 1 1 2 2 2 2 2 2 2 2 2 2 2 2 2 2 2 2
Wind_Direction
253 250 240 251 249 245 277 345 54 53 52 44 41 42 53 49 46 81 109 115 115 120 132 137 136 138 140 144 148 150 152 152 154 154 154 154 154 152 150 147 144 141 138 135 135 133 126 119 117
262 261 248 244 253 269 316 13 49 58 56 50 55 57 63 60 69 94 105 116 121 124 136 139 138 140 142 145 149 152 156 159 158 158 160 162 164 164 163 161 159 158 155 151 153 153 147 142 142
262 259 259 249 256 286 344 31 37 68 55 35 51 53 57 60 70 93 113 128 127 129 133 134 142 141 143 146 151 156 160 162 163 164 166 168 170 172 174 175 176 173 171 169 170 171 167 175 180
259 239 238 257 275 296 24 33 20 41 37 39 50 67 72 59 78 103 124 139 134 132 131 138 145 145 146 148 152 159 163 163 165 168 171 173 175 179 183 187 189 187 186 187 188 186 188 203 211
240 252 247 262 274 345 40 26 3 21 22 23 41 71 75 69 86 112 133 141 134 129 130 142 147 148 151 153 155 160 164 165 167 171 175 178 181 185 190 194 196 195 197 202 202 201 202 214 223
248 249 261 274 281 43 64 32 6 15 17 25 35 67 83 106 102 113 127 138 130 127 130 141 149 152 156 159 161 163 165 167 171 176 180 184 188 191 195 201 203 204 208 212 214 214 215 221 230
258 275 278 283 299 359 69 33 8 6 14 19 15 59 95 94 101 118 129 135 126 128 132 146 153 158 162 164 166 168 169 172 177 181 186 191 196 199 203 206 208 211 215 219 222 223 224 228 236
260 279 280 284 303 350 65 40 23 6 19 25 13 39 86 103 120 125 128 134 127 126 134 148 156 159 166 168 173 175 175 178 183 188 194 201 208 211 212 210 212 215 217 222 226 230 232 233 237
255 265 284 307 322 345 13 8 10 358 13 42 34 51 94 120 136 140 143 146 135 131 137 150 153 161 171 171 169 175 180 184 188 197 206 207 213 213 211 219 208 212 219 225 228 231 235 237 238
243 263 294 320 342 344 341 349 344 335 349 30 52 70 104 127 146 159 161 161 153 147 149 157 159 164 175 170 156 176 183 179 194 199 198 207 220 225 221 211 203 209 218 228 233 235 237 238 238
257 273 299 312 349 335 323 331 342 342 356 8 38 78 109 130 157 173 171 166 159 154 159 162 158 157 167 156 158 174 181 175 191 201 197 204 224 229 232 200 192 206 215 225 226 225 229 231 234
265 280 291 310 336 321 317 311 344 5 2 9 42 88 129 134 156 162 163 168 156 156 160 160 157 149 164 152 158 177 186 177 184 194 197 200 211 227 230 215 189 203 212 220 230 218 221 233 242
267 271 288 309 305 310 305 307 333 6 17 2 42 56 97 120 126 120 95 101 129 134 149 158 160 147 147 140 178 177 186 186 187 185 190 206 214 227 232 225 214 226 222 213 232 229 227 232 245
290 285 275 262 260 260 275 298 299 305 321 48 70 79 92 80 77 78 80 103 92 106 136 123 154 142 144 150 171 175 197 179 185 176 190 199 210 223 237 235 230 238 242 237 236 246 243 240 241
272 267 255 251 257 263 288 286 273 272 327 358 61 78 92 78 86 88 86 80 97 94 100 127 155 142 142 162 191 191 195 186 174 175 175 180 216 238 242 248 241 243 246 243 242 251 243 244 246
262 259 258 253 271 289 290 301 344 325 323 333 40 70 87 83 77 82 79 66 76 90 81 86 160 145 150 162 185 197 186 172 170 164 152 173 206 228 247 254 256 254 257 254 244 250 257 257 259
265 280 293 297 284 295 280 291 335 343 316 327 56 75 79 80 59 63 75 73 73 78 77 89 52 123 168 177 183 201 175 189 204 169 154 170 201 238 256 257 261 254 252 258 260 244 254 267 263
323 317 310 307 309 305 301 316 325 327 301 5 76 75 69 78 67 54 58 63 71 81 81 92 89 58 167 184 177 203 185 202 223 166 141 143 195 226 255 254 264 265 258 259 262 261 246 257 256
316 311 303 310 316 309 299 300 299 308 275 59 78 75 65 75 71 59 56 63 57 62 77 81 71 70 43 219 201 216 218 215 235 214 172 175 218 231 236 256 245 247 245 248 252 256 259 252 248
302 302 302 309 313 307 295 286 274 183 74 71 72 65 63 61 68 69 63 74 71 70 61 64 37 30 12 204 237 214 216 224 234 256 212 203 228 236 242 245 256 250 240 246 246 247 242 254 239
318 315 321 317 312 298 285 280 41 70 76 78 62 69 65 59 54 50 51 67 73 82 71 38 28 15 2 330 266 261 230 232 234 216 213 226 235 235 256 247 251 256 241 236 238 239 234 246 251
314 322 318 305 297 292 287 285 152 102 78 70 57 51 56 50 47 43 35 37 63 77 81 67 44 10 346 344 314 284 260 263 267 253 226 226 234 239 236 254 256 256 253 249 244 222 236 235 246
311 311 299 288 281 278 280 277 127 105 85 65 55 46 42 38 38 33 28 34 45 65 63 61 53 18 357 336 312 308 314 316 296 261 237 230 224 218 227 232 244 258 259 263 258 245 235 226 232
312 307 296 284 277 274 299 299 25 55 69 72 59 56 48 36 32 29 28 33 32 41 40 39 49 32 359 341 322 320 322 329 320 298 271 253 236 215 230 237 241 256 263 262 254 242 239 225 227
331 324 318 318 308 304 327 321 42 52 56 69 66 60 53 42 39 25 23 33 28 18 23 17 32 11 319 303 319 347 332 315 304 308 302 306 289 256 251 276 266 268 273 268 261 240 240 226 214
327 326 320 313 309 307 312 321 92 51 56 69 62 52 38 34 37 27 19 26 26 21 20 16 26 14 359 355 344 350 327 318 338 332 325 315 307 307 268 264 264 267 271 278 274 259 245 217 226
318 323 325 309 298 297 304 347 71 37 44 49 46 36 25 20 27 24 25 27 23 18 25 16 12 13 6 21 14 354 340 344 333 314 315 326 321 308 302 273 266 264 264 269 265 245 242 231 236
314 329 327 312 309 305 308 338 359 6 19 26 21 19 17 15 21 24 22 25 26 23 28 19 13 7 356 1 344 349 342 331 321 321 333 329 327 325 325 311 280 269 269 256 249 249 225 220 232
331 335 334 326 318 310 308 335 14 20 22 14 13 15 11 5 9 15 9 16 15 17 13 27 11 353 348 41 40 359 342 337 339 313 322 325 329 327 319 319 305 292 291 273 252 257 247 231 242
338 339 340 329 321 313 307 313 12 33 34 21 12 15 16 16 11 9 8 4 5 4 8 12 2 355 344 19 45 26 323 319 310 325 329 324 334 328 317 309 311 298 306 290 251 253 253 250 257